Starlink 32312

operational
NORAD ID: 61711 Int'l Des: 2024-196 Owner: SPXS Country: US Constellation: starlink
LEOCIRCULAR

Über Starlink 32312

Beschreibung wird geladen...

Live-Position

3D-Globus wird geladen...

Nächste Überflüge

Höhenverlauf

Altitude vs Time

uPlot chart will show altitude changes over time

Zweizeiliger Elementsatz

1 61711U 24196E 25259.25605802 -.00002021 00000-0 -56176-4 0 9995
2 61711 53.1595 191.3063 0000189 146.0464 214.0549 15.30178272 50457
Epoch: 16. Sept. 2025 • Age: 12 hours

Aktueller Status

Höhe 487.9 km
Geschwindigkeit 7.62 km/s
Subsatellitenpunkt -38.28°S, 120.04°W
Startdatum 30. Okt. 2024
Alter 0.8 years
Typ internet

Technische Details

Klassifizierung Payload
Masse 730.00 kg
Trockenmasse 700.00 kg
Gesamtmasse 730.00 kg
Länge 0.30 m
Durchmesser 4.10 m
Spannweite 29.00 m
Form Box + pan
Hersteller SPXS
Bus-Typ Starlink V2M
Phasenstatus In Orbit
Besitzer/Staat SPXS/US

Große Konstellationen

Loading constellations...